User: anonymous   Login
Location: Unspecified
(0.0000°N, 0.0000°E)
Time: 17:26:05
(UTC+02:00)
Language:

Centaur AC-64 - Orbit

View from above orbital plane
View from above orbital plane
View from above satellite
View from above satellite

Ground track
Ground track

The orbit data is extracted from the following two-line orbital elements,

1 15874U 85055B   14296.58000613  .00007551  00000-0  30076-2 0  5759
2 15874 023.2648 284.2248 6612847 312.8804 007.7865 03.13715731299714
Epoch (UTC): 23 October 2014 13:55:12
Eccentricity: 0.6612847
inclination: 23.2648°
perigee height: 298 km
apogee height: 26367 km
right ascension of ascending node: 284.2248°
argument of perigee: 312.8804°
revolutions per day: 3.13715731
mean anomaly at epoch: 7.7865°
orbit number at epoch: 29971

The dashed part of the orbit path shows where the satellite is in the earth's shadow,  

DLR